Regional Weather Roundup
Issued by NWS Jackson, KY

Home | Current Version | Previous Version | Graphics & Text | Print | Product List | Glossary On
Versions: 1 2 3 4 5 6 7 8 9 10 11 12 13 14 15 16 17 18 19 20 21 22 23 24 25 26 27 28 29 30 31 32 33 34 35 36 37 38 39 40 41 42 43 44 45 46 47 48 49 50
000
ASUS43 KJKL 230810
RWRJKL

EAST KENTUCKY HOURLY WEATHER ROUNDUP
NATIONAL WEATHER SERVICE JACKSON KY
300 AM EST MON JAN 23 2017

NOTE: "FAIR" INDICATES FEW OR NO CLOUDS BELOW 12,000 FEET WITH
NO SIGNIFICANT WEATHER AND/OR OBSTRUCTIONS TO VISIBILITY.

* THESE REPORTS ARE NOT UNDER NWS QUALITY CONTROL AND MAY NOT
  REPORT WEATHER SUCH AS PRECIPITATION AND FOG.

KYZ079-080-083-085-087-088-110-112-115-119-120-230900
...EASTERN KENTUCKY...

CITY           SKY/WX    TMP DP  RH WIND       PRES   REMARKS
JACKSON        LGT RAIN  52  50  93 NE8       29.28S FOG
LONDON         LGT RAIN  53  50  89 N13       29.25S
SOMERSET*      LGT RAIN  52  52 100 N12       29.27S
MONTICELLO*    LGT RAIN  54  52  93 N21       29.27R
WILLIAMSBURG*  CLOUDY    54  54 100 N9        29.22S
MIDDLESBORO*   RAIN      51  51 100 CALM      29.23S
HARLAN APT*    CLOUDY    52  50  93 SE5       29.22S
PIKE CO APT*   LGT RAIN  51  51 100 N7        29.28S
BIG SANDY APT* CLOUDY    51  51 100 N9        29.29S
MOREHEAD APT*  LGT RAIN  52  50  93 NE7G14    29.34S
ASHLAND*       CLOUDY    54  52  94 NE12      29.32F
$$

KYZ035-036-041-042-044-050-067-078-099-230900
...CENTRAL KENTUCKY...

CITY           SKY/WX    TMP DP  RH WIND       PRES   REMARKS
MT STERLING*   RAIN      52  52 100 NE9       29.34S
FLEMING/MASON* LGT RAIN  52  51  96 NE12      29.36F
DANVILLE*      LGT RAIN  52  50  93 NE12G17   29.31S
LEXINGTON      LGT RAIN  53  50  89 N14       29.33S
FRANKFORT      LGT RAIN  54  48  80 N12G18    29.35R
LOUISVILLE     CLOUDY    56  49  77 N18       29.39R
LEBANON*       LGT RAIN  54  50  87 N12G17    29.33R
GLASGOW*       LGT RAIN  54  50  87 N14       29.32R
BOWLING GREEN  CLOUDY    58  49  72 N13       29.36R
$$

KYZ091>093-OHZ055-061-077-WVZ005-015-034-035-042-230900
...SOUTHERN OHIO/WEST VIRGINIA...

CITY           SKY/WX    TMP DP  RH WIND       PRES   REMARKS
COVINGTON      CLOUDY    53  48  83 N15       29.40R
COLUMBUS       CLOUDY    56  48  74 NE12      29.42F
DAYTON         CLOUDY    46  44  93 N17       29.47R
WILMINGTON     CLOUDY    51  48  89 N14       29.40F
HUNTINGTON     CLOUDY    53  50  89 NE12G18   29.32F
CHARLESTON     CLOUDY    54  48  80 NE5       29.32F
BECKLEY        CLOUDY    48  44  86 E14       29.30F
BLUEFIELD      RAIN      45  44  97 E8G18     29.28F
LOGAN CO APT*  CLOUDY    54  48  82 NE7       29.28F
$$

VAZ002-007-008-TNZ017-027-036-066-071-230900
...SOUTHWEST VIRGINIA/EAST TENNESSEE...

CITY           SKY/WX    TMP DP  RH WIND       PRES   REMARKS
WISE*          LGT RAIN  50  50 100 N8        29.26F
JONESVILLE*    LGT RAIN  52  52 100 CALM      29.23S
ABINGDON*      RAIN      51  49  90 E13       29.24S
BRISTOL        CLOUDY    52  48  86 NE7       29.21R
MORRISTOWN*    CLOUDY    50  50 100 NE8       29.18F
SEVIERVILLE*   CLOUDY    50  48  93 CALM      29.18S
KNOXVILLE      LGT RAIN  53  49  86 SW8       29.20R
LAFOLLETTE*    PTSUNNY   52  50  93 E7        29.23R
OAK RIDGE      CLOUDY    55  51  86 VRB3      29.21R
CROSSVILLE     LGT RAIN  50  48  93 NW6       29.23R FOG
NASHVILLE      CLOUDY    56  51  84 N15G22    29.33R
$$

...KEY TO REMARKS...
VSB - VISIBILITY IN MILES
WCI - WIND CHILL INDEX
HX  - HEAT INDEX

$$



USA.gov is the U.S. government's official web portal to all federal, state and local government web resources and services.